World > North America > United States > Ohio > Tiro  

Tiro, OH Hourly Weather Updates

Feedback E-mail the Weather

Quick Clicks

Tiro, OH Weather Maps

°F °C°F °C
Tiro Weather Map
UTC Time: 7/22/2024, 12:08
Your Time:

Tiro, OH Regional Weather

Expires:202407221300;;099348
ASUS41 KCLE 221202
RWRCLE
OHIO REGIONAL WEATHER ROUNDUP
NATIONAL WEATHER SERVICE CLEVELAND, OH
800 AM EDT MON JUL 22 2024

NOTE: "FAIR" INDICATES FEW OR NO CLOUDS BELOW 12,000 FEET WITH NO
SIGNIFICANT WEATHER AND/OR OBSTRUCTIONS TO VISIBILITY.


OHZ009>014-019>023-028>033-038-089-221300-
   NORTHEAST OHIO
  
CITY           SKY/WX    TMP DP  RH WIND       PRES   REMARKS
CLE-HOPKINS    CLOUDY    70  61  73 N3        30.03R                  
CLE-LAKEFRONT  PTSUNNY   75  60  59 NE3       30.03S                  
CUY CO. ARPT   SUNNY     66  61  82 E3        30.04S                  
LORAIN-ELYRIA  PTSUNNY   66  62  87 CALM      30.04F                  
ASHTABULA      CLOUDY    65  62  90 CALM      30.05S                  
AKRON-CANTON   PTSUNNY   69  62  78 NE7       30.04R                  
WOOSTER        PTSUNNY   69  63  81 N3        30.05R                  
MANSFIELD      CLOUDY    70  61  73 CALM      30.05S                  
YOUNGSTOWN     CLOUDY    68  62  81 NE6       30.04S                  
$$


SKY/WX - Weather  TMP - Temperature  DP - Dew Point  RH - Humidity
WIND - Wind Direction/Speed PRES - Barometric Pressure VSB - Visibility
WCI - Wind Chill Index E13G22 Wind - East Wind 13 mph/Gusts of 22 mph

Trending Headlines

Trending Entertainment Headlines

Tiro Radar Loop

Use the map search tool if you want to place a location marker on the radar map...

Tiro Quick Facts

National Two Day Weather Forecast


E-mail the Tiro Weather Forecast

Voice your opinion or tell us about page issues...